Content
SEND FEEDBACK

Daily
Averages
Monthly
Summary
United States of America

UMATAC, GUAM


Home > North America > United States > Guam
Elevation: 190 feet     Latitude: 13 17N     Longitude: 144 40E

WEATHER
 
SELECT A DAY
Number of Records: 350,199;   Date Range: 1/1/95 - 9/29/14
 
SHARE

PRINT THIS DATA

[ ← Previous Day ]
WEATHER ALMANAC - APRIL 10, 2014
[ Next Day → ]
[ °C ]   °F
Weather ElementAverageHighLow
Temperature80.6 °F84.2 °F (10:08 am)78.4 °F (4:58 am)
Dewpoint73.7 °F75.4 °F (9:58 pm)71.6 °F (12:33 am)
Humidity79.7 %89 % (8:33 pm)70 % (10:08 am)
Barometer29.86 in29.91 in (8:28 am)29.77 in (3:58 pm)
Wind Speed12 mph16.1 mph (12:58 pm)
Wind Gust18.4 mph (12:08 pm)
Weather ElementAverage
Visibility10 mi
Wind DirectionENE (71 °)

Weather ElementTotal
Precipitation---
Cooling Degree Days16.3 (Base 65)
Growing Degree Days31.3 (Base 50)
Averaged from 103 records on April 10, 2014
WEATHER CONDITIONS BREAKOUT
WIND DIRECTION BREAKOUT
WEATHER BY HOUR - APRIL 10, 2014
[ °C ]   °F
Local TimeTemperatureDewpointHumidityBarometerVisibilityWind DirectionWind SpeedGust SpeedPrecipitationEventsConditions
12:33 AM78.8 °F71.6 °F78 %29.88 in10.0 miENE (70°)11.5 mphMostly Cloudy
12:43 AM78.8 °F71.6 °F78 %29.88 in10.0 miEast (80°)9.2 mphMostly Cloudy
12:48 AM78.8 °F71.6 °F78 %29.88 in10.0 miEast (80°)9.2 mphScattered Clouds
12:58 AM78.6 °F72.5 °F81 %29.84 in10.0 miENE (70°)11.5 mph0.00 inMostly Cloudy
1:03 AM78.8 °F71.6 °F78 %29.87 in10.0 miENE (70°)11.5 mphMostly Cloudy
1:08 AM78.8 °F71.6 °F78 %29.87 in10.0 miENE (70°)12.7 mphMostly Cloudy
1:18 AM78.8 °F71.6 °F78 %29.87 in10.0 miENE (70°)11.5 mphScattered Clouds
1:23 AM78.8 °F73.4 °F83 %29.87 in10.0 miENE (70°)12.7 mphMostly Cloudy
1:38 AM78.8 °F71.6 °F78 %29.86 in10.0 miENE (70°)11.5 mphScattered Clouds
1:58 AM78.8 °F71.6 °F78 %29.83 in10.0 miENE (70°)11.5 mphMostly Cloudy
2:28 AM78.8 °F71.6 °F78 %29.86 in10.0 miENE (70°)13.8 mphOvercast
2:33 AM78.8 °F73.4 °F83 %29.86 in10.0 miENE (70°)10.4 mphOvercast
2:43 AM78.8 °F73.4 °F83 %29.85 in10.0 miEast (80°)9.2 mphOvercast
2:48 AM78.8 °F71.6 °F78 %29.85 in10.0 miEast (80°)12.7 mphOvercast
2:53 AM78.8 °F71.6 °F78 %29.85 in10.0 miEast (80°)12.7 mphOvercast
2:58 AM78.8 °F72.3 °F80 %29.82 in10.0 miEast (80°)11.5 mphOvercast
3:08 AM78.8 °F71.6 °F78 %29.85 in10.0 miEast (80°)12.7 mphOvercast
3:13 AM78.8 °F71.6 °F78 %29.85 in10.0 miEast (80°)15.0 mphOvercast
3:28 AM78.8 °F71.6 °F78 %29.85 in10.0 miEast (90°)12.7 mphOvercast
3:53 AM78.8 °F71.6 °F78 %29.85 in10.0 miEast (100°)11.5 mphOvercast
3:58 AM78.8 °F72.0 °F79 %29.81 in10.0 miEast (80°)12.7 mphOvercast
4:08 AM78.8 °F71.6 °F78 %29.85 in10.0 miEast (90°)12.7 mphOvercast
4:23 AM78.8 °F71.6 °F78 %29.85 in10.0 miEast (80°)10.4 mphOvercast
4:28 AM78.8 °F71.6 °F78 %29.85 in10.0 miENE (70°)11.5 mphOvercast
4:38 AM78.8 °F71.6 °F78 %29.85 in10.0 miEast (80°)11.5 mphOvercast
4:53 AM78.8 °F71.6 °F78 %29.85 in10.0 miEast (80°)11.5 mphMostly Cloudy
4:58 AM78.4 °F72.1 °F81 %29.82 in10.0 miEast (80°)12.7 mphMostly Cloudy
5:03 AM78.8 °F71.6 °F78 %29.85 in10.0 miEast (90°)10.4 mphOvercast
5:28 AM78.8 °F71.6 °F78 %29.86 in10.0 miEast (80°)12.7 mphOvercast
5:48 AM78.8 °F71.6 °F78 %29.86 in10.0 miEast (90°)13.8 mphOvercast
5:58 AM78.8 °F71.6 °F78 %29.83 in10.0 miEast (90°)12.7 mphMostly Cloudy
6:58 AM79.3 °F72.5 °F79 %29.86 in10.0 miEast (80°)12.7 mphMostly Cloudy
7:08 AM80.6 °F73.4 °F79 %29.88 in10.0 miEast (80°)11.5 mphMostly Cloudy
7:28 AM80.6 °F73.4 °F79 %29.89 in10.0 miEast (80°)9.2 mphMostly Cloudy
7:38 AM80.6 °F73.4 °F79 %29.90 in10.0 miEast (80°)9.2 mphMostly Cloudy
7:53 AM80.6 °F73.4 °F79 %29.90 in10.0 miEast (80°)12.7 mphMostly Cloudy
7:58 AM80.8 °F73.2 °F78 %29.88 in10.0 miEast (90°)12.7 mphMostly Cloudy
8:28 AM82.4 °F73.4 °F74 %29.91 in10.0 miEast (90°)12.7 mphMostly Cloudy
8:33 AM82.4 °F73.4 °F74 %29.91 in10.0 miEast (100°)11.5 mphMostly Cloudy
8:58 AM82.4 °F72.5 °F72 %29.88 in10.0 miEast (80°)12.7 mphPartly Cloudy
9:58 AM83.5 °F73.8 °F72 %29.88 in10.0 miEast (80°)10.4 mphScattered Clouds
10:08 AM84.2 °F73.4 °F70 %29.91 in10.0 miEast (90°)12.7 mphMostly Cloudy
10:18 AM84.2 °F73.4 °F70 %29.91 in10.0 miEast (80°)12.7 mphMostly Cloudy
10:23 AM84.2 °F73.4 °F70 %29.90 in10.0 miENE (60°)13.8 mphMostly Cloudy
10:28 AM84.2 °F73.4 °F70 %29.90 in10.0 miENE (70°)12.7 mphScattered Clouds
10:43 AM84.2 °F73.4 °F70 %29.90 in10.0 miENE (60°)13.8 mphMostly Cloudy
10:48 AM84.2 °F73.4 °F70 %29.90 in10.0 miEast (80°)11.5 mphScattered Clouds
10:58 AM84.2 °F74.5 °F72 %29.87 in10.0 miENE (60°)11.5 mphScattered Clouds
11:08 AM84.2 °F75.2 °F74 %29.89 in10.0 miENE (70°)13.8 mphScattered Clouds
11:33 AM84.2 °F75.2 °F74 %29.89 in10.0 miENE (60°)13.8 mphMostly Cloudy
11:38 AM84.2 °F75.2 °F74 %29.89 in10.0 miENE (60°)12.7 mphMostly Cloudy
11:43 AM84.2 °F75.2 °F74 %29.89 in10.0 miENE (60°)11.5 mphScattered Clouds
11:58 AM84.0 °F74.7 °F73 %29.86 in10.0 miENE (70°)11.5 mphMostly Cloudy
12:03 PM84.2 °F75.2 °F74 %29.88 in10.0 miENE (70°)12.7 mphMostly Cloudy
12:08 PM84.2 °F73.4 °F70 %29.88 in10.0 miNE (50°)12.7 mph18.4 mphMostly Cloudy
12:18 PM84.2 °F75.2 °F74 %29.88 in10.0 miENE (70°)11.5 mphMostly Cloudy
12:38 PM82.4 °F73.4 °F74 %29.87 in10.0 miENE (60°)12.7 mphMostly Cloudy
12:43 PM84.2 °F75.2 °F74 %29.86 in10.0 miENE (60°)11.5 mphMostly Cloudy
12:53 PM84.2 °F75.2 °F74 %29.86 in10.0 miENE (60°)15.0 mphMostly Cloudy
12:58 PM83.3 °F74.7 °F75 %29.83 in10.0 miENE (70°)16.1 mphMostly Cloudy
1:53 PM82.4 °F75.2 °F79 %29.83 in10.0 miNE (40°)12.7 mphMostly Cloudy
1:58 PM82.4 °F73.4 °F74 %29.81 in10.0 miNE (50°)15.0 mphMostly Cloudy
2:08 PM82.4 °F75.2 °F79 %29.82 in10.0 miNE (50°)12.7 mphMostly Cloudy
2:58 PM82.4 °F75.2 °F79 %29.78 in10.0 miNE (50°)11.5 mphMostly Cloudy
3:17 PM82.4 °F75.2 °F79 %29.81 in10.0 miENE (60°)10.4 mphScattered Clouds
3:58 PM82.6 °F75.0 °F78 %29.77 in10.0 miNE (50°)15.0 mphScattered Clouds
4:08 PM82.4 °F75.2 °F79 %29.80 in10.0 miNE (50°)13.8 mphScattered Clouds
4:23 PM82.4 °F75.2 °F79 %29.81 in10.0 miENE (70°)12.7 mphMostly Cloudy
4:33 PM82.4 °F75.2 °F79 %29.81 in10.0 miENE (60°)12.7 mphMostly Cloudy
4:38 PM80.6 °F75.2 °F84 %29.81 in10.0 miENE (70°)12.7 mphMostly Cloudy
4:43 PM80.6 °F75.2 °F84 %29.81 in10.0 miENE (70°)11.5 mphMostly Cloudy
4:48 PM80.6 °F75.2 °F84 %29.81 in10.0 miENE (70°)13.8 mphMostly Cloudy
4:53 PM80.6 °F75.2 °F84 %29.81 in10.0 miENE (70°)11.5 mphScattered Clouds
4:58 PM80.6 °F74.8 °F83 %29.79 in10.0 miEast (80°)15.0 mphMostly Cloudy
5:13 PM80.6 °F75.2 °F84 %29.82 in10.0 miENE (70°)10.4 mphMostly Cloudy
5:18 PM80.6 °F73.4 °F79 %29.82 in10.0 miENE (70°)10.4 mphMostly Cloudy
5:33 PM80.6 °F73.4 °F79 %29.83 in10.0 miENE (70°)12.7 mphMostly Cloudy
5:38 PM80.6 °F73.4 °F79 %29.83 in10.0 miENE (70°)12.7 mphScattered Clouds
5:58 PM80.2 °F74.3 °F82 %29.81 in10.0 miENE (70°)10.4 mphScattered Clouds
6:58 PM79.2 °F74.1 °F84 %29.82 in10.0 miENE (60°)8.1 mphPartly Cloudy
7:58 PM79.3 °F74.5 °F85 %29.84 in10.0 miENE (60°)12.7 mphPartly Cloudy
8:33 PM78.8 °F75.2 °F89 %29.87 in10.0 miENE (60°)11.5 mphMostly Cloudy
8:53 PM80.6 °F75.2 °F84 %29.88 in10.0 miENE (60°)12.7 mphOvercast
8:58 PM79.7 °F75.0 °F86 %29.86 in10.0 miENE (60°)12.7 mphOvercast
9:03 PM80.6 °F75.2 °F84 %29.88 in10.0 miENE (60°)13.8 mphOvercast
9:08 PM80.6 °F75.2 °F84 %29.88 in10.0 miENE (60°)12.7 mphOvercast
9:18 PM80.6 °F75.2 °F84 %29.88 in10.0 miENE (60°)11.5 mphMostly Cloudy
9:23 PM78.8 °F75.2 °F89 %29.89 in10.0 miENE (70°)11.5 mphMostly Cloudy
9:43 PM78.8 °F75.2 °F89 %29.88 in10.0 miENE (60°)10.4 mphScattered Clouds
9:53 PM78.8 °F75.2 °F89 %29.88 in10.0 miENE (70°)11.5 mphScattered Clouds
9:58 PM79.2 °F75.4 °F88 %29.86 in10.0 miENE (70°)9.2 mphScattered Clouds
10:13 PM78.8 °F75.2 °F89 %29.89 in10.0 miENE (70°)10.4 mphMostly Cloudy
10:23 PM78.8 °F75.2 °F89 %29.89 in10.0 miENE (70°)11.5 mphScattered Clouds
10:28 PM78.8 °F75.2 °F89 %29.89 in10.0 miENE (70°)12.7 mphMostly Cloudy
10:33 PM78.8 °F75.2 °F89 %29.89 in10.0 miEast (80°)11.5 mphMostly Cloudy
10:38 PM78.8 °F75.2 °F89 %29.89 in10.0 miENE (70°)10.4 mphMostly Cloudy
10:58 PM79.5 °F75.2 °F87 %29.86 in10.0 miENE (70°)10.4 mphMostly Cloudy
11:03 PM78.8 °F75.2 °F89 %29.89 in10.0 miENE (70°)11.5 mphMostly Cloudy
11:13 PM78.8 °F75.2 °F89 %29.89 in10.0 miENE (70°)11.5 mphOvercast
11:28 PM78.8 °F75.2 °F89 %29.88 in10.0 miENE (60°)11.5 mphOvercast
11:33 PM78.8 °F75.2 °F89 %29.88 in10.0 miENE (70°)10.4 mphMostly Cloudy
11:53 PM78.8 °F75.2 °F89 %29.88 in10.0 miENE (70°)11.5 mphMostly Cloudy
11:58 PM79.2 °F75.4 °F88 %29.86 in10.0 miENE (60°)10.4 mphMostly Cloudy
Hourly data recorded from PGUA, located miles away from Umatac, Guam







STORIES FROM OUR PARTNERS